Regional Weather Roundup
Issued by NWS

Home | Current Version | Previous Version | Text Only | Print | Product List | Glossary Off
Versions: 1 2 3 4 5 6 7 8 9 10 11 12 13 14 15 16 17 18 19 20 21 22 23 24 25 26 27 28 29 30 31 32 33 34 35 36 37 38 39 40 41 42 43 44 45 46 47 48 49 50

000
ASUS45 KCYS 282310
RWRWY

WYOMING REGIONAL WEATHER ROUNDUP
NATIONAL WEATHER SERVICE CHEYENNE WY
400 PM MST FRI NOV 28 2014

NOTE:  "FAIR" INDICATES FEW OR NO CLOUDS BELOW 12,000 FEET
WITH NO SIGNIFICANT WEATHER AND/OR OBSTRUCTIONS TO VISIBILITY.

WYZ001-290000-
YELLOWSTONE NATIONAL PARK

CITY           SKY/WX    TMP DP  RH WIND       PRES   REMARKS
LK YELLOWSTONE   N/A     39  15  37 VRB7G18   29.78F WCI  34
W YELLOWSTONE  NOT AVBL

$$
WYZ002>013-054>058-071-098>099-290000-
NORTHERN WYOMING

CITY           SKY/WX    TMP DP  RH WIND       PRES   REMARKS
JACKSON        PTCLDY    45  19  36 S16       29.79F
CODY           CLOUDY    50  21  32 SW21G32   29.63F
GREYBULL       MOCLDY    49  27  42 W16       29.67F
WORLAND        CLOUDY    41  27  57 SE9       29.69R
SHERIDAN       PTCLDY    59  20  22 S9G20     29.56F
BUFFALO        MOCLDY    57  18  21 SW8       29.62S
GILLETTE       CLOUDY    51  25  36 SW20      29.59F
HULETT           N/A    N/A N/A N/A MISG        N/A
NEWCASTLE      FAIR      45  28  53 NE6       29.65F

$$
WYZ014>020-022>026-101>103-290000-
CENTRAL WYOMING

CITY           SKY/WX    TMP DP  RH WIND       PRES   REMARKS
BIG PINEY      PTCLDY    49  10  20 W24G32    29.88F
PINEDALE       MOCLDY    46  18  31 S6        29.89S
DUBOIS         FAIR      43  12  28 W14G20    29.78F
LANDER         MOCLDY    56   8  14 NW12G22   29.75S
RIVERTON       MOCLDY    55  17  22 W14       29.76S
CASPER         CLOUDY    54  16  22 SW15      29.74S
DOUGLAS        PTCLDY    58  17  20 W26G38    29.72R

$$
WYZ021-027>030-104>119-290000-
SOUTHERN WYOMING

CITY           SKY/WX    TMP DP  RH WIND       PRES   REMARKS
EVANSTON       PTCLDY    47  20  34 SW13      29.93F
FORT BRIDGER   FAIR      55  13  18 W20       29.95S
ROCK SPRINGS   PTCLDY    53   7  15 W21G30    29.92S
DIXON          FAIR      53  20  27 SW12      29.99S
RAWLINS        PTCLDY    51  14  22 SW23G32   29.90S
SARATOGA       FAIR      50  16  25 SW14G20   29.94F
LARAMIE        MOCLDY    46  13  26 SW9       29.91F
CHEYENNE       CLOUDY    57  12  17 SW17      29.84R
TORRINGTON     MOCLDY    62  13  14 W15G26    29.73R
PINE BLUFFS    FAIR      59  12  15 W18G29    29.80S

$$


USA.gov is the U.S. government's official web portal to all federal, state and local government web resources and services.